Weather History for Istanbul, Turkey

Change the Weather History Date:

Sunday, December 25, 2011

  Actual Average Record
Temperature  
Mean Temperature 38 °F -  
Max Temperature 43 °F 46 °F 64 °F (2010)
Min Temperature 32 °F 38 °F 30 °F (2008)
Degree Days  
Heating Degree Days 28    
Moisture  
Dew Point 26 °F    
Average Humidity 65    
Maximum Humidity 80    
Minimum Humidity 41    
Precipitation  
Precipitation 0.00 in - - ()
Sea Level Pressure  
Sea Level Pressure 30.31 in    
Wind  
Wind Speed 11 mph ()    
Max Wind Speed 16 mph    
Max Gust Speed -    
Visibility 6.2 miles    
Events      
Averages and records for this station are not official NWS values.
T = Trace of Precipitation, MM = Missing Value Source: Averaged Metar Reports

Daily Weather History Graph

Daily Weather History Graph

Search for Another Location

Airport:

Trip Planner

Search our weather history database for the weather conditions in past years. The results will help you decide how hot, cold, wet, or windy it might be!

Date:

Astronomy

Dec. 25, 2011 Rise Set
Actual Time 7:27 AM EET 4:41 PM EET
Civil Twilight 6:56 AM EET 5:12 PM EET
Nautical Twilight 6:21 AM EET 5:47 PM EET
Astronomical Twilight 5:48 AM EET 6:20 PM EET
Moon 7:50 AM EET (12/25) 5:40 PM EET (12/25)
Length of Visible Light 10h 16m
Length of Day
9h 13m
New Moon, 1% of the Moon is Illuminated
Dec 25
New Moon
Jan 1
First Quarter
Jan 9
Full
Jan 16
Last Quarter
Jan 23
New

Hourly Weather History & Observations

Time (EET) Temp. Windchill Dew Point Humidity Pressure Visibility Wind Dir Wind Speed Gust Speed Precip Events Conditions
12:20 AM 35.6 °F 25.9 °F 24.8 °F 65% 30.18 in 6.2 mi NNW 16.1 mph - N/A   Scattered Clouds
12:50 AM 35.6 °F 26.6 °F 24.8 °F 65% 30.18 in 6.2 mi North 13.8 mph - N/A   Scattered Clouds
1:20 AM 35.6 °F 26.2 °F 23.0 °F 60% 30.18 in 6.2 mi NNW 15.0 mph - N/A   Scattered Clouds
1:50 AM 35.6 °F 26.6 °F 23.0 °F 60% 30.18 in 6.2 mi North 13.8 mph - N/A   Scattered Clouds
2:00 AM 35 °F - 23 °F 49% 30.21 in 6 mi North 13.8 mph - -   Partly Cloudy
2:20 AM 33.8 °F 25.3 °F 23.0 °F 65% 30.21 in 6.2 mi North 11.5 mph - N/A   Scattered Clouds
2:50 AM 33.8 °F 25.3 °F 24.8 °F 70% 30.21 in 6.2 mi North 11.5 mph - N/A   Scattered Clouds
3:20 AM 33.8 °F 26.4 °F 24.8 °F 70% 30.21 in 6.2 mi North 9.2 mph - N/A   Partly Cloudy
3:50 AM 33.8 °F 27.0 °F 24.8 °F 70% 30.21 in 6.2 mi North 8.1 mph - N/A   Partly Cloudy
4:20 AM 32.0 °F 24.2 °F 24.8 °F 75% 30.21 in 6.2 mi NNW 9.2 mph - N/A   Partly Cloudy
4:50 AM 32.0 °F 24.2 °F 26.6 °F 80% 30.21 in 6.2 mi NNW 9.2 mph - N/A   Partly Cloudy
5:20 AM 32.0 °F 24.8 °F 26.6 °F 80% 30.21 in 6.2 mi NNW 8.1 mph - N/A   Partly Cloudy
5:50 AM 33.8 °F 27.7 °F 26.6 °F 75% 30.24 in 6.2 mi NNW 6.9 mph - N/A   Partly Cloudy
6:20 AM 33.8 °F 27.0 °F 26.6 °F 75% 30.24 in 6.2 mi NNW 8.1 mph - N/A   Partly Cloudy
6:50 AM 35.6 °F 28.6 °F 26.6 °F 70% 30.24 in 6.2 mi NNW 9.2 mph - N/A   Partly Cloudy
7:20 AM 35.6 °F 28.0 °F 26.6 °F 70% 30.27 in 6.2 mi NNW 10.4 mph - N/A   Partly Cloudy
7:50 AM 33.8 °F 26.4 °F 26.6 °F 75% 30.27 in 6.2 mi NW 9.2 mph - N/A   Partly Cloudy
8:00 AM 34 °F - 26 °F 62% 30.29 in 6 mi NW 9.2 mph - -   Scattered Clouds
8:20 AM 35.6 °F 27.5 °F 26.6 °F 70% 30.27 in 6.2 mi NNW 11.5 mph - N/A   Partly Cloudy
8:50 AM 37.4 °F 29.3 °F 26.6 °F 65% 30.30 in 6.2 mi NNW 12.7 mph - N/A   Partly Cloudy
9:20 AM 37.4 °F 29.3 °F 26.6 °F 65% 30.30 in 6.2 mi NW 12.7 mph - N/A   Partly Cloudy
9:50 AM 37.4 °F 28.9 °F 26.6 °F 65% 30.30 in 6.2 mi NNW 13.8 mph - N/A   Partly Cloudy
10:20 AM 39.2 °F 30.8 °F 24.8 °F 56% 30.30 in 6.2 mi NNW 15.0 mph - N/A   Partly Cloudy
10:50 AM 39.2 °F 31.2 °F 26.6 °F 61% 30.30 in 6.2 mi NNW 13.8 mph - N/A   Partly Cloudy
11:20 AM 41.0 °F 33.5 °F 26.6 °F 57% 30.30 in 6.2 mi NNW 13.8 mph - N/A   Partly Cloudy
11:50 AM 41.0 °F 34.3 °F 24.8 °F 53% 30.30 in 6.2 mi NNW 11.5 mph - N/A   Partly Cloudy
12:20 PM 41.0 °F 34.7 °F 26.6 °F 57% 30.30 in 6.2 mi North 10.4 mph - N/A   Scattered Clouds
12:50 PM 41.0 °F 37.1 °F 23.0 °F 49% 30.30 in 6.2 mi NNW 5.8 mph - N/A   Partly Cloudy
1:20 PM 41.0 °F 35.8 °F 24.8 °F 53% 30.30 in 6.2 mi NNW 8.1 mph - N/A   Partly Cloudy
1:50 PM 42.8 °F 37.5 °F 24.8 °F 49% 30.30 in 6.2 mi NNW 9.2 mph - N/A   Partly Cloudy
2:00 PM 42 °F - 26 °F 41% 30.33 in 6 mi NNW 9.2 mph - -   Scattered Clouds
2:20 PM 41.0 °F 35.2 °F 26.6 °F 57% 30.30 in 6.2 mi North 9.2 mph - N/A   Scattered Clouds
2:50 PM 41.0 °F 34.3 °F 26.6 °F 57% 30.33 in 6.2 mi North 11.5 mph - N/A   Scattered Clouds
3:20 PM 41.0 °F 34.7 °F 24.8 °F 53% 30.33 in 6.2 mi North 10.4 mph - N/A   Scattered Clouds
3:50 PM 39.2 °F 32.0 °F 26.6 °F 61% 30.33 in 6.2 mi North 11.5 mph - N/A   Scattered Clouds
4:20 PM 39.2 °F 31.6 °F 24.8 °F 56% 30.33 in 6.2 mi North 12.7 mph - N/A   Scattered Clouds
4:50 PM 39.2 °F 31.6 °F 24.8 °F 56% 30.36 in 6.2 mi North 12.7 mph - N/A   Scattered Clouds
5:20 PM 37.4 °F 29.8 °F 26.6 °F 65% 30.36 in 6.2 mi North 11.5 mph - N/A   Scattered Clouds
5:50 PM 37.4 °F 29.8 °F 26.6 °F 65% 30.36 in 6.2 mi NNW 11.5 mph - N/A   Scattered Clouds
6:20 PM 37.4 °F 29.8 °F 28.4 °F 70% 30.39 in 6.2 mi North 11.5 mph - N/A   Scattered Clouds
6:50 PM 37.4 °F 28.9 °F 28.4 °F 70% 30.39 in 6.2 mi NNW 13.8 mph - N/A   Scattered Clouds
7:20 PM 35.6 °F 27.1 °F 28.4 °F 75% 30.39 in 6.2 mi North 12.7 mph - N/A   Scattered Clouds
7:50 PM 35.6 °F 27.1 °F 28.4 °F 75% 30.42 in 6.2 mi North 12.7 mph - N/A   Scattered Clouds
8:00 PM 36 °F - 28 °F 61% 30.43 in 6 mi North 12.7 mph - -   Partly Cloudy
8:20 PM 35.6 °F 27.1 °F 26.6 °F 70% 30.42 in 6.2 mi North 12.7 mph - N/A   Scattered Clouds
8:50 PM 35.6 °F 27.5 °F 26.6 °F 70% 30.42 in 6.2 mi North 11.5 mph - N/A   Partly Cloudy
9:20 PM 35.6 °F 27.5 °F 28.4 °F 75% 30.42 in 6.2 mi North 11.5 mph - N/A   Partly Cloudy
9:50 PM 35.6 °F 27.1 °F 26.6 °F 70% 30.45 in 6.2 mi North 12.7 mph - N/A   Partly Cloudy
10:20 PM 35.6 °F 26.6 °F 26.6 °F 70% 30.45 in 6.2 mi North 13.8 mph - N/A   Partly Cloudy
10:50 PM 33.8 °F 24.8 °F 26.6 °F 75% 30.45 in 6.2 mi North 12.7 mph - N/A   Partly Cloudy
11:20 PM 33.8 °F 24.8 °F 26.6 °F 75% 30.45 in 6.2 mi North 12.7 mph - N/A   Partly Cloudy
11:50 PM 33.8 °F 24.8 °F 26.6 °F 75% 30.45 in 6.2 mi North 12.7 mph - N/A   Partly Cloudy